Location: Br�ttisellen
(47.4227°N, 8.6287°E)
Time: 23:33:17
(UTC+00:00)

STARLINK-1237 - Pass Details

Date: 09 April 2020
Orbit: 549 x 550 km, 53.0° (Epoch: 27 May)

Event Time Altitude Azimuth Distance (km) Brightness Sun altitude
Rises 20:30:03 0° 297° (WNW) 2,724 8.5 -22.2°
Reaches altitude 10° 20:32:19 10° 293° (WNW) 1,828 7.3 -22.5°
Enters shadow 20:36:14 57° 227° (SW) 652 3.9 -23.0°
